Simultaneous Nadir Overpasses (SNOs) Predictions

Prediction of SNOs between LANDSAT-8 and METOP-B Satellite Orbit:

Table of predicted SNOs for the next 14.0 days since TLE Epoch: 2/12/2015
Index Date (LANDSAT-8) Time (LANDSAT-8) Lat,Lon (LANDSAT-8) SZA (LANDSAT-8 ) Date (METOP-B) Time (METOP-B) Lat,Lon (METOP-B) SZA (METOP-B ) Distance(km) Time Diff (sec)
1 02/12/2015 10:49:05 -81.05,-123.82 83.71 02/12/2015 10:48:41 -81.04,-123.90 83.73 1.53 24
2 02/12/2015 11:38:30 81.08, 44.23 96.34 02/12/2015 11:39:20 81.08, 44.25 96.36 0.45 50
3 02/15/2015 06:23:16 -81.05, -57.44 84.67 02/15/2015 06:23:02 -81.04, -57.59 84.69 2.76 14
4 02/15/2015 07:12:41 81.07, 110.59 95.38 02/15/2015 07:13:41 81.07, 110.54 95.40 0.94 60
5 02/18/2015 01:57:27 -81.05, 9.07 85.63 02/18/2015 01:57:23 -81.05, 9.03 85.64 0.66 4
6 02/18/2015 02:46:52 81.08, 177.08 94.42 02/18/2015 02:48:02 81.08, 177.14 94.45 1.12 70
7 02/20/2015 20:42:12 81.01, -92.64 93.32 02/20/2015 20:41:06 81.02, -92.66 93.30 0.54 66
8 02/20/2015 21:31:37 -81.06, 75.70 86.60 02/20/2015 21:31:44 -81.05, 75.60 86.61 1.85 7
9 02/23/2015 16:16:20 81.03, -25.90 92.35 02/23/2015 16:15:25 81.04, -25.80 92.34 1.71 55




NCC Satellite Simultaneous Nadir Overpasses (SNOs) Prediction Service
